Dewpoint
65 65 65 65 65 64 64 63 63 63 63 63 62 62 62 62 62 62 62 62 63 63 63 63 63 63 64 64 64 65 65 65 64 63 62 61 61 61 61 62 62 62 62 62 62 63 65 65 62 61 59 58 56 54 54 55 57 58 57 58 57 56 54 57 58 58 59 59 60 61 63 64 64 64 64 64 64 64 63 63 63 63 63 63 63 63 64 65 65 65 64 64 63 63 63 63 64 65 65 65 65 65 65
66 66 65 65 65 65 65 64 64 64 64 63 62 61 61 62 62 62 62 62 63 63 63 63 63 63 63 64 65 65 66 66 65 64 63 62 61 61 61 61 62 62 63 63 63 64 66 64 62 60 59 57 54 52 52 53 55 57 57 57 57 57 56 59 60 59 59 59 60 61 63 64 64 64 64 64 64 64 64 64 64 64 63 63 63 63 63 64 65 65 65 64 64 63 62 63 63 64 64 65 65 65 65
67 67 66 66 66 65 65 64 64 63 63 63 62 62 62 62 62 62 63 63 63 63 63 63 62 62 62 63 65 66 66 66 66 65 64 63 62 61 61 62 62 63 63 63 64 65 66 64 62 60 59 57 55 52 52 52 54 55 57 57 57 58 58 60 61 60 60 60 60 61 62 63 64 64 64 64 63 64 64 64 64 64 64 64 63 63 63 64 65 66 66 65 64 63 63 62 62 63 63 64 65 65 65
68 68 68 68 66 65 64 64 63 63 63 63 63 62 62 63 63 63 63 63 63 63 63 62 62 62 62 62 64 65 66 66 66 65 64 63 62 62 62 62 63 63 63 63 65 65 65 63 61 60 59 58 56 54 52 53 54 55 56 57 57 57 60 61 61 61 61 61 61 61 61 62 63 63 63 63 63 63 63 64 64 65 65 65 64 63 63 64 66 66 66 66 65 64 63 63 63 63 63 63 64 64 64
68 68 67 66 66 65 65 64 63 63 63 63 63 63 63 64 64 64 64 64 64 63 63 62 62 62 62 62 63 64 65 65 65 64 64 63 63 63 62 63 63 63 64 64 66 65 63 62 61 59 59 58 57 56 54 54 55 55 55 55 56 58 62 62 62 62 62 61 61 61 61 62 62 62 62 62 62 62 63 63 64 64 65 65 65 64 64 65 66 66 67 66 66 65 65 64 64 63 63 63 63 63 63
69 68 66 65 65 66 65 65 64 64 63 64 64 64 64 64 64 65 64 64 64 63 63 62 62 61 62 62 63 63 64 65 65 64 64 64 63 63 63 63 64 64 64 65 66 66 64 61 59 57 57 58 58 58 57 56 56 55 54 54 55 58 62 61 61 62 62 62 62 62 62 62 62 62 61 61 61 61 62 62 63 64 65 65 65 65 64 65 66 66 67 67 66 66 66 65 64 64 64 63 63 63 63
69 67 65 65 65 65 65 64 64 64 64 64 64 64 65 65 65 65 65 64 64 63 63 62 62 62 62 62 63 63 64 64 65 65 64 64 64 63 63 64 64 64 65 66 66 66 64 61 59 57 57 57 57 57 58 58 57 56 54 54 56 59 61 61 62 62 62 62 62 62 62 62 62 62 61 61 61 61 61 61 62 63 64 65 65 65 65 65 66 66 67 67 67 66 66 66 65 65 64 64 64 63 63
67 66 65 65 65 65 65 65 64 64 64 64 65 65 66 65 65 65 65 64 64 63 63 63 62 62 62 63 63 64 64 64 65 65 65 65 64 64 64 64 64 65 66 66 66 66 65 62 60 59 58 57 57 57 57 57 57 57 56 55 57 59 61 61 62 62 63 63 62 62 62 62 62 62 62 62 62 61 61 61 62 62 63 64 65 65 65 65 66 66 67 67 67 67 66 66 66 65 65 64 64 64 64
68 67 66 65 65 65 65 65 65 65 65 65 66 66 66 66 65 65 65 64 64 64 63 63 63 63 63 64 64 64 63 63 64 64 65 65 65 65 65 65 65 66 66 66 66 66 65 63 61 60 59 58 58 57 57 56 56 55 55 56 57 59 61 61 61 62 63 63 63 62 62 62 62 62 63 63 62 62 62 62 62 62 62 63 64 65 65 65 65 66 66 67 67 68 67 66 66 66 65 65 65 64 64
69 69 68 66 65 65 65 65 65 65 65 66 66 66 66 65 65 65 65 64 64 64 63 64 64 64 64 64 64 64 64 64 63 64 64 65 65 66 66 66 66 66 66 66 66 66 65 63 61 61 60 59 58 58 58 56 55 54 54 56 58 60 61 61 61 61 62 63 63 63 62 62 62 63 63 63 63 63 63 63 63 63 62 63 63 64 64 65 65 66 66 67 67 68 68 67 66 66 66 65 65 65 65
69 70 69 68 67 66 66 66 66 66 66 66 66 66 65 65 65 65 64 64 64 64 64 64 64 65 65 65 65 65 65 64 64 64 64 65 65 66 66 66 66 66 66 66 66 66 65 63 62 61 61 60 60 59 58 57 55 54 53 56 59 61 62 62 61 62 62 63 63 63 63 63 63 63 63 64 64 64 63 63 63 63 63 63 63 63 64 64 65 65 66 66 67 67 68 67 67 66 66 66 66 65 65
69 69 69 68 68 67 67 66 66 66 66 66 66 65 65 65 65 65 64 64 64 64 64 64 65 65 65 65 65 65 65 65 65 65 65 65 65 65 66 66 66 66 66 66 66 65 65 64 63 62 61 61 60 59 58 57 56 54 54 57 59 61 62 62 62 62 62 63 63 63 64 63 63 63 64 64 64 64 64 64 64 64 63 63 63 63 64 64 65 65 66 66 66 67 67 68 68 67 66 66 66 66 66
68 68 68 68 68 67 67 66 66 66 66 66 65 65 65 65 65 65 65 65 64 64 65 65 65 65 66 66 66 66 66 66 66 66 66 65 65 65 66 66 66 66 66 66 65 65 65 64 63 62 61 61 60 59 58 57 56 55 55 58 60 61 62 62 63 63 63 63 63 64 64 64 64 64 64 64 64 64 64 64 64 64 64 64 64 64 64 64 64 65 65 66 66 66 67 67 68 68 67 66 66 66 66
68 68 68 68 68 67 66 66 66 66 66 65 65 66 66 66 66 66 65 65 65 65 65 65 65 65 65 65 65 66 66 66 66 66 66 66 66 66 66 66 66 66 66 65 65 64 63 63 62 61 61 60 59 59 59 57 57 57 57 60 61 61 62 62 62 63 63 63 63 64 64 64 64 64 64 64 64 64 64 64 64 64 64 64 64 64 64 64 64 64 65 65 66 66 66 67 67 68 68 67 67 66 66
68 67 67 67 67 67 67 66 66 66 66 66 66 66 66 66 66 66 66 66 66 65 65 65 65 65 65 65 66 66 66 66 66 66 66 66 66 66 66 66 66 65 65 64 64 63 62 62 61 61 60 59 58 58 59 57 57 57 60 61 61 61 61 62 62 63 63 63 63 64 64 64 64 64 64 64 64 64 64 64 64 64 64 64 64 64 64 64 64 64 64 65 65 66 66 66 67 67 68 68 67 67 67
66 66 66 67 67 67 67 67 66 66 66 66 66 66 66 66 66 66 66 66 66 66 66 66 65 65 66 66 66 66 66 66 66 66 66 66 66 66 66 66 65 64 64 63 62 62 62 61 61 61 60 59 58 58 58 57 57 59 61 62 62 61 61 62 62 62 63 63 63 64 64 64 64 65 65 65 64 64 64 64 64 63 63 64 64 64 64 64 64 64 64 64 65 65 66 66 66 67 67 67 68 68 67
66 66 66 66 66 66 67 67 67 66 66 66 66 66 66 67 67 67 66 66 66 66 66 66 66 66 66 66 66 66 65 64 64 64 65 65 65 65 65 65 64 64 63 61 61 61 61 61 61 60 59 58 57 57 58 57 58 60 62 63 62 62 62 62 62 63 63 63 63 64 64 64 64 65 65 65 65 64 64 64 64 63 63 63 63 63 64 64 64 64 65 64 64 65 65 65 66 66 67 67 67 68 68
65 65 66 66 66 66 66 67 67 66 66 66 66 67 67 67 67 67 67 66 66 66 66 66 66 66 66 66 66 65 63 63 62 63 63 64 64 64 64 64 63 63 62 61 61 61 61 61 61 60 59 58 57 57 58 57 59 61 63 63 63 63 62 63 63 63 63 64 64 64 64 64 64 65 65 65 65 65 64 64 64 63 63 63 63 63 63 63 64 64 64 65 64 64 64 65 65 66 66 66 67 67 67
65 66 66 66 66 66 66 66 66 66 66 66 67 67 67 67 67 67 66 66 66 66 66 66 66 66 66 65 65 64 62 62 62 62 62 62 62 62 63 63 63 62 62 61 61 61 61 61 60 60 59 58 57 57 58 58 60 62 63 64 64 63 63 63 64 64 64 64 64 64 64 64 65 65 65 65 65 65 65 64 64 64 63 63 63 62 62 63 63 63 64 64 64 64 64 65 65 65 65 66 66 66 67
64 65 66 66 66 66 66 66 66 66 66 66 66 66 66 66 66 66 66 66 66 66 66 66 66 66 66 64 63 62 62 62 62 63 63 62 61 61 62 62 62 62 61 61 61 61 61 61 60 59 59 58 58 58 58 59 61 63 64 64 64 64 64 64 64 65 65 65 65 65 65 65 65 65 65 65 65 65 65 65 65 64 64 64 63 63 62 62 62 63 63 64 64 64 64 65 65 65 65 65 66 66 66
62 62 63 64 64 64 65 65 65 65 65 66 66 66 65 65 65 66 66 66 66 66 66 66 66 65 64 63 62 62 62 62 62 62 62 61 61 61 61 61 61 61 61 61 61 61 61 60 60 59 58 58 58 58 58 60 61 63 64 65 65 64 64 65 65 65 65 65 65 65 65 65 65 65 66 66 66 66 66 66 65 65 65 64 64 63 63 63 62 62 62 63 63 64 64 64 64 64 64 65 65 65 66
61 61 61 61 62 62 62 62 62 63 63 65 65 64 63 63 63 63 65 64 64 64 65 65 64 64 63 63 62 62 62 62 61 61 61 61 61 61 61 61 61 61 61 60 60 60 60 59 59 59 58 58 58 58 59 61 62 63 64 65 65 65 65 65 65 66 66 66 66 66 66 66 66 66 66 66 66 66 66 66 66 66 65 65 65 64 64 63 63 62 62 62 62 63 63 64 64 64 64 64 64 65 65
61 61 61 61 61 61 61 61 61 61 61 64 64 63 62 62 62 62 62 62 62 61 62 62 62 62 62 62 61 61 61 61 61 61 61 61 61 61 61 60 60 60 60 60 59 59 59 59 59 59 58 58 59 59 59 61 63 63 64 65 65 65 65 65 65 66 66 66 66 66 66 66 66 66 66 66 66 66 66 66 66 66 66 66 65 65 65 64 64 63 63 62 62 62 63 63 63 64 64 64 64 64 65
61 61 61 61 61 61 61 61 61 61 61 63 63 62 62 62 62 61 61 61 61 61 61 61 61 61 61 61 61 61 61 61 61 61 60 60 60 60 60 60 60 59 59 59 59 59 59 59 59 59 59 59 59 59 60 61 63 63 64 65 65 65 65 65 65 66 66 66 66 66 66 66 66 66 66 66 66 66 66 66 66 66 66 66 66 66 66 65 65 64 64 63 63 63 63 63 63 63 63 64 64 64 64
61 61 61 61 61 61 61 61 61 62 62 62 62 62 62 62 61 61 61 61 61 61 61 61 61 61 61 61 61 61 61 61 61 61 60 60 60 60 60 60 60 59 59 59 59 59 59 59 59 59 59 59 59 59 60 61 62 63 64 64 65 65 65 65 65 66 66 66 66 66 67 67 67 67 67 67 67 67 67 67 67 66 66 66 66 66 66 66 66 65 65 65 64 64 63 63 63 63 63 63 64 64 64
62 62 61 61 61 61 61 61 61 62 62 62 62 62 62 62 62 61 61 61 61 61 61 61 61 61 61 61 61 61 61 61 61 61 61 60 60 60 60 60 60 59 59 59 59 59 59 59 59 59 59 59 59 59 60 61 62 62 63 64 64 65 65 65 65 65 66 66 66 66 67 67 67 67 67 67 67 67 67 67 67 67 67 66 66 66 66 66 66 66 66 66 65 65 64 64 63 63 62 62 63 64 64
62 62 61 61 61 62 62 62 62 62 62 63 63 63 62 62 62 62 61 61 61 61 61 61 61 61 61 61 61 61 61 61 61 61 61 61 61 60 60 60 60 60 60 60 60 60 60 60 60 59 59 59 59 59 59 60 61 62 62 63 64 64 65 65 65 65 65 66 66 66 66 67 67 67 67 67 67 67 67 67 67 67 67 67 67 66 66 66 66 66 66 66 66 65 65 65 64 63 63 63 63 63 63
62 62 62 62 62 62 62 62 62 62 62 63 63 63 62 62 62 62 62 62 62 62 62 61 61 61 62 62 62 62 61 61 61 61 61 61 61 61 60 60 60 60 60 60 60 60 60 60 60 60 60 60 60 59 59 60 61 61 62 63 63 64 64 65 65 65 65 65 66 66 66 66 67 67 67 67 67 67 67 68 67 67 67 67 67 67 67 67 66 66 66 66 66 66 66 65 65 65 64 63 63 63 63
62 62 62 62 62 62 62 62 62 62 63 63 63 62 62 62 62 62 62 62 62 62 62 61 61 62 61 62 62 61 61 61 61 61 61 61 61 61 61 60 60 60 60 60 60 60 60 60 60 59 59 59 59 59 59 59 60 61 61 62 63 64 64 64 65 65 65 65 66 66 66 66 66 67 67 67 67 67 68 68 68 68 68 67 67 67 67 67 67 67 66 66 66 66 66 66 66 66 65 65 64 64 63
62 62 63 62 62 63 63 63 63 63 63 63 63 62 62 62 62 62 62 62 61 61 61 61 61 61 61 61 61 61 61 61 61 61 61 61 61 61 60 60 60 60 60 59 59 59 59 59 59 59 59 59 59 59 59 59 60 60 61 61 62 63 64 64 64 65 65 65 65 66 66 66 66 66 67 67 67 67 67 68 68 68 68 68 68 68 68 67 67 67 67 66 66 66 66 66 66 66 66 66 65 65 64
63 63 63 63 63 63 63 62 62 62 63 62 62 62 62 62 62 61 61 61 61 61 61 61 61 61 61 61 61 61 61 61 61 61 60 60 60 60 60 60 60 60 60 59 59 59 59 59 59 59 59 59 59 59 59 59 59 60 60 61 61 62 63 64 64 64 65 65 65 65 66 66 66 66 66 67 67 67 67 68 68 68 68 68 68 68 68 68 68 68 67 67 67 67 66 66 66 66 66 66 66 66 66
63 63 63 62 62 62 62 62 62 62 62 62 62 61 62 62 61 61 61 61 61 61 61 61 61 61 61 61 60 60 60 60 60 60 60 59 59 59 60 60 60 59 59 59 59 59 59 59 59 59 58 58 58 58 58 58 58 58 59 60 61 61 62 63 63 64 64 65 65 65 65 66 66 66 66 66 67 67 67 67 67 67 67 67 67 67 68 68 68 68 68 68 67 67 67 67 67 67 66 66 66 66 66
63 63 62 62 62 62 62 61 61 61 61 61 61 61 61 61 61 61 61 61 61 61 61 61 61 60 60 60 60 60 60 59 59 59 59 58 58 58 58 58 58 59 59 59 59 59 59 59 59 59 59 58 58 58 58 57 57 57 58 59 60 61 61 62 63 63 64 64 65 65 65 65 66 66 66 66 66 66 67 67 67 67 67 67 67 67 67 67 67 67 67 68 68 68 67 67 67 67 67 66 67 67 67
63 62 62 61 61 61 61 61 61 61 61 61 61 61 61 61 61 61 61 61 61 61 60 59 59 59 59 59 59 59 59 59 59 58 58 57 57 57 57 57 57 57 57 57 58 58 59 59 59 58 58 57 57 57 57 57 57 57 57 58 58 59 60 61 62 62 63 64 64 65 65 65 65 66 66 66 66 66 66 66 66 66 66 66 66 66 66 66 67 67 67 67 67 67 67 67 67 67 67 67 67 67 67
62 62 61 61 61 61 61 61 61 61 61 61 60 60 59 59 59 60 60 60 60 59 58 58 58 58 58 58 58 58 58 58 57 57 57 57 57 56 56 56 56 56 56 56 57 57 57 57 57 57 57 56 56 56 56 56 56 56 56 57 58 58 59 60 61 61 62 63 64 64 64 65 65 65 65 66 66 66 66 66 66 66 66 66 66 66 66 66 66 66 66 66 67 67 67 67 67 67 67 67 67 67 67
61 61 61 61 60 60 60 59 59 59 59 59 59 59 58 58 58 59 60 60 59 58 57 57 57 57 57 57 57 56 57 56 56 56 56 56 56 56 56 55 55 55 55 55 56 56 56 56 56 56 56 56 56 55 55 55 55 55 56 56 57 57 58 58 59 60 61 62 62 63 64 64 64 65 65 65 65 66 66 66 66 66 66 66 66 66 66 66 66 66 66 66 66 66 67 67 67 67 67 67 67 67 67
61 60 60 60 59 58 57 57 57 57 57 57 57 58 58 58 58 58 58 58 57 57 57 56 57 57 57 56 55 54 54 54 54 54 54 54 55 55 55 54 54 54 54 54 55 55 55 55 55 54 54 54 53 53 53 54 54 54 55 55 55 56 56 56 57 58 60 61 61 62 63 63 64 64 64 65 65 65 65 65 66 66 66 66 66 66 66 66 66 66 65 65 66 66 66 66 66 67 67 67 67 67 67
60 59 59 58 57 56 54 54 54 54 55 55 56 56 57 57 57 57 56 55 55 54 54 54 54 55 55 54 53 52 52 52 52 51 52 52 52 52 53 53 53 53 53 53 54 54 53 53 52 52 52 51 51 51 51 52 52 53 54 54 55 55 55 56 56 56 57 59 60 61 61 62 63 63 64 64 65 65 65 65 65 65 65 65 65 66 66 66 65 65 65 65 66 66 66 66 66 66 66 66 67 67 67
59 57 57 56 54 53 52 52 52 53 53 54 54 55 56 56 54 52 51 50 51 51 51 50 50 50 50 50 50 50 50 50 49 49 50 50 50 50 51 51 52 52 52 52 52 52 51 51 51 51 50 50 49 50 50 51 51 52 53 53 54 54 55 55 55 55 55 56 57 58 59 61 61 62 63 64 64 64 64 65 65 65 65 65 65 65 65 65 65 65 65 65 65 65 65 65 65 65 66 66 66 67 67
56 54 53 52 51 51 50 50 50 51 52 52 52 53 53 52 50 48 46 46 47 48 48 48 46 45 45 45 46 46 47 47 48 48 48 48 48 48 48 49 49 48 49 49 49 49 49 49 50 50 50 50 50 50 50 51 51 52 52 52 53 53 53 54 54 54 54 54 55 56 57 59 61 61 62 63 63 64 64 64 64 64 65 65 65 65 65 65 65 65 65 65 65 65 65 65 65 65 66 66 66 66 67
52 51 50 49 49 48 48 47 48 48 49 49 50 50 50 48 45 43 42 42 43 44 45 45 43 41 40 42 43 43 43 44 45 45 45 45 44 44 45 45 45 45 45 46 46 46 47 48 49 49 50 50 50 50 50 50 50 51 51 51 51 52 52 52 53 53 52 52 53 54 56 58 59 61 61 62 63 63 63 63 64 64 64 64 64 64 64 64 64 65 65 65 65 65 65 65 65 65 65 66 66 66 66
48 48 48 47 47 46 45 45 46 46 46 46 47 46 46 43 42 41 40 40 41 42 42 43 42 40 39 39 40 40 41 42 42 42 42 41 41 41 41 41 41 41 42 43 43 44 45 46 47 48 48 48 48 48 48 48 48 49 49 49 49 50 51 52 52 52 51 52 52 53 54 57 58 59 60 61 61 62 62 62 63 63 64 64 64 64 64 64 64 64 65 65 65 65 65 65 65 65 65 65 65 66 66
46 46 45 44 44 44 43 44 44 45 44 44 44 43 43 41 40 40 39 40 40 40 39 40 40 39 39 38 38 38 38 39 39 39 39 38 37 37 37 37 37 38 39 40 41 41 43 43 44 46 47 45 44 44 45 45 46 46 47 47 48 48 49 49 50 50 51 52 52 53 53 55 57 58 59 60 61 61 61 61 61 62 63 63 63 63 63 63 63 63 64 64 65 65 65 65 65 65 65 65 65 65 65
44 44 43 42 42 42 42 43 43 43 43 42 42 42 40 39 39 39 39 40 39 39 37 37 38 38 37 36 36 36 36 35 35 35 35 34 33 33 33 34 35 36 37 37 37 38 38 39 41 43 43 41 41 41 41 42 42 43 43 44 45 45 46 46 47 48 48 49 50 51 51 52 54 56 57 58 59 60 61 61 61 62 63 63 64 64 63 63 62 62 63 63 64 65 65 65 65 65 65 65 65 65 65
42 42 41 40 40 40 40 41 42 42 41 41 40 40 39 38 37 37 37 38 38 37 35 35 35 36 36 35 34 34 34 33 33 32 31 31 31 31 32 34 34 34 33 33 33 34 34 36 38 38 38 38 38 39 39 39 39 38 38 39 39 40 41 42 43 44 44 45 47 48 49 48 48 50 52 53 55 56 57 58 60 61 63 64 64 64 64 63 63 63 63 64 64 65 65 64 64 64 64 64 64 65 65
40 39 39 39 38 38 39 40 40 40 39 39 39 39 37 35 35 35 34 35 35 34 33 33 33 34 34 34 33 32 31 30 30 30 30 30 30 31 33 32 31 31 30 30 30 31 33 34 35 34 34 35 36 37 37 37 36 35 33 33 34 37 38 39 39 40 40 42 43 44 45 44 43 43 44 46 47 49 51 54 57 59 61 62 63 64 64 65 65 65 65 66 66 65 64 63 62 62 63 63 63 64 64
38 38 37 37 37 37 37 38 39 39 38 38 37 36 34 33 32 32 32 32 32 32 31 30 31 32 32 33 32 30 29 28 27 27 28 29 30 31 32 30 29 29 29 29 29 30 32 32 32 32 33 34 34 34 33 34 34 33 31 31 33 34 35 36 36 36 37 39 39 39 40 39 38 38 39 40 41 42 45 49 53 56 57 59 60 61 62 63 64 65 66 66 66 66 65 63 62 62 62 61 61 62 62
36 36 36 35 35 35 36 37 37 37 36 36 35 34 33 31 30 30 30 30 30 30 30 31 30 30 30 30 29 28 27 26 26 27 27 28 28 29 29 28 28 28 29 29 29 30 32 30 30 30 32 32 31 30 30 31 32 32 31 32 33 33 33 33 33 34 35 37 37 36 35 35 34 34 34 35 36 37 39 43 47 50 53 55 57 58 59 60 61 63 64 65 64 64 64 62 61 61 61 61 61 61 62
34 35 34 34 34 34 34 35 36 36 34 34 34 34 32 30 30 30 30 30 30 29 29 30 30 30 27 27 27 26 26 25 26 27 28 27 26 26 26 27 27 28 28 29 29 30 31 29 29 30 31 30 29 29 30 30 31 31 31 33 33 32 31 31 32 32 34 34 34 33 33 33 32 32 32 34 34 35 36 37 39 43 48 50 52 54 56 57 58 59 61 61 61 61 60 60 59 58 58 59 59 61 61
32 32 32 33 33 33 33 33 34 34 33 34 34 33 32 31 31 31 29 28 28 28 28 29 29 29 28 26 26 26 26 25 26 27 27 26 25 25 25 26 27 28 28 29 29 29 28 27 27 28 27 28 28 29 29 30 30 31 32 32 32 31 30 30 31 32 33 32 31 32 32 32 32 32 33 33 34 34 34 35 36 38 42 44 46 48 51 52 54 56 57 58 58 58 58 57 57 56 56 56 56 57 57
31 31 30 31 32 32 33 33 33 33 33 34 33 32 32 30 30 29 26 26 26 27 28 27 28 29 29 27 26 26 26 26 27 27 26 25 25 26 26 26 27 27 27 27 27 28 28 27 26 25 26 26 27 28 29 29 30 30 31 31 31 30 30 30 31 31 31 30 30 30 31 31 31 32 33 33 33 33 33 34 35 36 37 38 39 41 44 46 49 52 54 55 56 56 56 56 56 55 55 55 55 55 55
30 30 30 30 31 32 33 32 32 31 32 33 32 31 30 28 27 26 26 26 26 26 27 27 27 27 28 27 27 26 26 27 28 27 26 25 26 28 28 28 27 25 25 24 25 26 27 26 26 26 25 25 26 27 28 29 29 30 30 30 30 29 30 31 31 31 31 30 30 30 30 30 30 31 32 31 31 31 32 33 34 34 35 36 38 39 41 43 45 48 51 52 53 54 54 54 54 54 54 54 54 55 55
29 29 29 29 30 31 32 32 31 30 31 31 31 30 29 27 26 26 26 26 26 26 27 27 27 27 27 27 27 26 27 27 27 27 28 27 27 27 28 27 26 25 24 22 21 21 22 23 24 24 25 25 26 27 28 28 29 29 30 29 29 29 30 30 30 30 30 29 29 29 29 30 30 31 30 30 30 31 32 32 33 34 34 35 36 38 39 42 44 47 48 49 50 50 51 52 52 53 54 54 55 56 56
30 29 28 29 29 30 30 30 30 30 30 31 31 30 28 26 25 25 25 25 25 25 25 27 27 27 26 27 26 26 27 28 28 27 28 29 28 27 26 26 25 25 25 22 20 18 18 20 21 22 24 25 26 26 26 27 27 27 28 27 28 29 29 29 29 29 28 27 27 28 28 29 30 30 30 29 30 30 30 31 32 33 34 34 35 36 37 40 43 45 46 46 47 47 48 50 52 53 54 56 57 57 57
29 28 28 28 29 29 30 29 29 30 30 30 31 30 28 26 25 25 24 24 24 25 24 25 26 27 27 26 27 27 26 28 27 27 27 29 29 28 26 26 25 25 23 21 19 18 18 21 21 22 23 24 24 24 25 25 26 27 28 28 26 25 26 26 26 26 26 26 27 27 27 28 28 29 28 29 29 30 31 32 33 33 34 34 35 36 38 41 42 43 43 43 44 45 47 49 51 53 54 56 56 56 56
28 26 26 27 28 28 29 29 28 28 29 30 30 30 28 26 25 25 23 24 24 24 24 24 25 25 26 26 27 26 26 26 26 27 28 28 29 30 29 27 25 23 21 19 19 20 21 22 22 21 20 21 22 22 22 24 24 25 27 26 25 24 24 24 24 24 24 25 25 25 25 27 27 27 27 28 29 30 31 32 32 32 32 33 34 35 36 37 38 38 39 39 41 44 47 49 52 53 53 53 53 53 53
28 27 25 25 26 27 28 28 28 28 28 29 30 30 28 27 25 24 23 23 23 23 23 24 24 25 26 27 27 26 26 25 27 29 30 29 29 28 27 27 26 25 24 22 22 22 23 24 22 19 18 20 21 22 21 22 22 23 24 23 22 22 22 22 22 22 22 23 23 23 24 25 26 26 28 28 29 29 30 30 30 31 31 32 33 34 34 34 35 36 36 37 39 42 47 51 52 52 50 49 50 50 51
27 27 25 25 26 26 27 27 27 27 27 29 30 29 28 26 24 23 23 21 21 22 23 23 24 24 25 27 27 26 25 25 25 27 29 29 28 26 25 27 28 28 28 27 25 24 23 22 21 19 17 18 20 21 21 20 20 20 21 21 21 21 21 21 21 21 22 22 22 22 22 24 25 26 27 27 27 27 27 28 29 30 31 32 33 33 32 34 35 36 35 37 40 43 49 52 51 48 47 48 48 49 50
26 26 25 26 26 26 26 26 26 26 27 29 29 28 26 24 23 22 22 19 20 23 24 23 23 24 26 26 26 26 24 24 25 26 27 27 26 25 25 25 26 27 28 28 27 25 24 22 21 20 19 17 17 18 19 18 18 18 18 19 19 19 20 20 20 21 21 21 22 22 22 23 24 25 25 25 25 26 26 27 28 29 30 31 31 31 32 35 36 37 38 41 44 47 51 50 47 45 45 46 47 48 48
27 26 26 25 25 25 25 25 26 26 27 28 28 27 25 24 23 22 21 19 21 24 24 23 23 24 25 25 25 25 25 25 25 26 26 25 25 25 26 25 25 25 25 25 24 24 24 23 22 21 21 19 17 16 16 16 17 17 17 17 18 19 19 19 20 21 21 21 21 21 21 21 22 23 24 24 25 25 26 27 28 29 30 29 29 29 30 30 32 34 36 40 44 48 49 46 44 43 43 44 45 46 47
26 27 27 25 25 25 24 25 25 25 27 28 28 26 25 24 23 22 21 20 21 22 23 22 23 24 25 25 25 25 26 25 25 26 26 25 25 25 26 25 25 24 25 24 23 23 23 24 24 23 22 21 19 16 15 15 15 16 16 16 17 18 19 19 20 20 21 21 21 20 20 21 21 21 22 24 25 25 25 26 27 27 27 27 27 27 29 28 29 30 32 37 43 47 47 43 42 41 42 42 43 44 45